Chillicothe, MO

3:08 AM CST on January 19, 2017 (GMT -0600)
Chillicothe

Weather History for KCDJ - October, 2012

Change the Weather History Date:

Saturday, October 13, 2012

  Actual Average (KIRK) Record (KIRK)
Temperature  
Mean Temperature 62 °F -  
Max Temperature 70 °F 66 °F 88 °F (1975)
Min Temperature 55 °F 44 °F 25 °F (1979)
Degree Days  
Heating Degree Days 3    
Growing Degree Days 12 (Base 50)    
Moisture  
Dew Point 60 °F    
Average Humidity 88    
Maximum Humidity 93    
Minimum Humidity 72    
Precipitation  
Precipitation 0.98 in - - ()
Sea Level Pressure  
Sea Level Pressure 29.86 in    
Wind  
Wind Speed 9 mph (SSE)    
Max Wind Speed 17 mph    
Max Gust Speed 26 mph    
Averages and records for this station are not official NWS values.
T = Trace of Precipitation, MM = Missing Value Source: NWS Daily Summary

Daily Weather History Graph

Daily Weather History Graph

Search for Another Location

Airport or City:

Trip Planner

Search our weather history database for the weather conditions in past years. The results will help you decide how hot, cold, wet, or windy it might be!

Date:

Astronomy

Oct. 13, 2012 Rise Set
Actual Time 7:23 AM CDT 6:37 PM CDT
Civil Twilight 6:55 AM CDT 7:04 PM CDT
Nautical Twilight 6:24 AM CDT 7:35 PM CDT
Astronomical Twilight 5:53 AM CDT 8:06 PM CDT
Moon 5:13 AM CDT (10/13) 5:21 PM CDT (10/13)
Length of Visible Light 12h 08m
Length of Day
11h 14m
Waning Crescent, 5% of the Moon is Illuminated
Oct 13
Waning Crescent
Oct 15
New
Oct 21
First Quarter
Oct 29
Full
Nov 6
Last Quarter

Hourly Weather History & Observations

Time (CDT) Temp. Dew Point Humidity Pressure Visibility Wind Dir Wind Speed Gust Speed Precip Events Conditions
12:52 AM 57.9 °F 48.9 °F 72% 30.09 in - SE 6.9 mph - N/A   Unknown
1:52 AM 57.9 °F 50.0 °F 75% 30.03 in - SSE 11.5 mph - N/A   Unknown
2:52 AM 57.9 °F 52.0 °F 81% 30.01 in - SSE 8.1 mph - N/A   Unknown
3:52 AM 55.9 °F 54.0 °F 93% 30.02 in - Variable 3.5 mph - 0.15 in   Unknown
4:52 AM 55.9 °F 54.0 °F 93% 29.98 in - SE 6.9 mph - 0.21 in   Unknown
5:52 AM 57.0 °F 55.0 °F 93% 29.97 in - SE 5.8 mph - N/A   Unknown
6:52 AM 60.1 °F 57.9 °F 93% 29.95 in - SSE 9.2 mph - 0.04 in   Unknown
7:52 AM 61.0 °F 59.0 °F 93% 29.93 in - SSE 8.1 mph - 0.01 in   Unknown
8:52 AM 63.0 °F 60.1 °F 90% 29.94 in - South 8.1 mph - N/A   Unknown
9:52 AM 64.0 °F 61.0 °F 90% 29.94 in - South 12.7 mph 19.6 mph N/A   Unknown
10:52 AM 64.9 °F 61.0 °F 87% 29.93 in - South 9.2 mph 18.4 mph N/A   Unknown
11:52 AM 64.9 °F 62.1 °F 90% 29.93 in - South 8.1 mph - 0.08 in   Unknown
12:52 PM 66.0 °F 64.0 °F 93% 29.84 in - SSE 10.4 mph - 0.08 in   Unknown
1:52 PM 68.0 °F 64.0 °F 87% 29.83 in - South 10.4 mph 20.7 mph N/A   Unknown
2:52 PM 69.1 °F 64.0 °F 84% 29.79 in - South 17.3 mph 26.5 mph N/A   Unknown
3:52 PM 68.0 °F 64.0 °F 87% 29.76 in - South 12.7 mph - N/A   Unknown
4:52 PM 66.9 °F 64.0 °F 90% 29.78 in - SSW 10.4 mph 21.9 mph 0.04 in   Unknown
5:52 PM 68.0 °F 64.9 °F 90% 29.77 in - SSE 13.8 mph - 0.18 in   Unknown
6:52 PM 66.9 °F 64.9 °F 93% 29.75 in - SSE 9.2 mph 18.4 mph 0.13 in   Unknown
7:52 PM 66.9 °F 64.0 °F 90% 29.72 in - SSE 12.7 mph 17.3 mph N/A   Unknown
8:52 PM 66.9 °F 64.0 °F 90% 29.70 in - SE 8.1 mph - N/A   Unknown
9:52 PM 68.0 °F 64.0 °F 87% 29.71 in - South 10.4 mph 19.6 mph N/A   Unknown
10:52 PM 66.9 °F 63.0 °F 87% 29.66 in - South 9.2 mph - 0.02 in   Unknown
11:52 PM 64.0 °F 60.1 °F 87% 29.65 in - South 4.6 mph - 0.04 in   Unknown